FW1589 Weather Reports


Display with metric or nautical units.
time (UTC)temp
F
wind
direction
speed
MPH
gust
MPH
rain 1hr
in
rain 24hr
in
rain mn
in
humidity
%
barometer
mb
20260506122658 55 282 0.0 0.0 0.00 0.01 0.00 84 1002.2
20260506122151 55 282 0.0 0.0 0.00 0.01 0.00 84 1002.1
20260506121644 55 282 0.0 0.0 0.00 0.01 0.00 84 1002.2
20260506120633 55 282 0.0 0.0 0.00 0.01 0.00 84 1002.1
20260506120127 55 282 0.0 0.0 0.00 0.01 0.00 84 1002.1
20260506115621 55 282 0.0 0.0 0.00 0.01 0.00 84 1002.0
20260506115116 55 282 0.0 0.0 0.00 0.01 0.00 84 1002.0
20260506114609 55 282 0.0 0.0 0.00 0.01 0.00 84 1002.0
20260506114103 55 282 0.0 0.0 0.00 0.01 0.00 84 1001.9
20260506113051 55 282 0.0 0.0 0.00 0.01 0.00 84 1002.0
20260506112544 55 282 0.0 0.0 0.00 0.01 0.00 84 1001.9
20260506112038 55 282 0.0 0.0 0.00 0.01 0.00 84 1001.9
20260506111533 55 282 0.0 0.0 0.00 0.01 0.00 84 1001.8
20260506110015 55 282 0.0 0.0 0.00 0.01 0.00 84 1001.7
20260506105509 55 282 0.0 0.0 0.00 0.01 0.00 84 1001.7
20260506105002 55 282 0.0 0.0 0.00 0.01 0.00 84 1001.7
20260506104457 55 282 0.0 0.0 0.00 0.01 0.00 83 1001.7
20260506103951 54 282 0.0 0.0 0.00 0.01 0.00 83 1001.7
20260506103445 54 286 0.0 0.0 0.00 0.01 0.00 83 1001.6
20260506102939 54 286 0.0 0.0 0.00 0.01 0.00 83 1001.6
20260506102432 54 286 0.0 0.0 0.00 0.01 0.00 83 1001.5
20260506101926 54 286 0.0 0.0 0.00 0.01 0.00 83 1001.5
20260506101420 55 286 0.0 0.0 0.00 0.01 0.00 83 1001.5
20260506100915 55 286 0.0 0.0 0.00 0.01 0.00 83 1001.5
20260506100408 54 286 0.0 0.0 0.00 0.01 0.00 83 1001.5
20260506095903 54 286 0.0 0.0 0.00 0.01 0.00 84 1001.5
20260506094851 54 277 0.0 0.0 0.00 0.01 0.00 84 1001.5
20260506094345 55 277 0.0 0.0 0.00 0.01 0.00 84 1001.6
20260506093838 54 277 0.0 0.0 0.00 0.01 0.00 84 1001.7
20260506093333 54 240 0.0 0.0 0.00 0.01 0.00 84 1001.6
20260506092827 54 259 0.0 0.0 0.00 0.01 0.00 84 1001.6
20260506092321 54 259 0.0 0.0 0.00 0.01 0.00 84 1001.6
20260506091815 54 259 0.0 0.0 0.00 0.02 0.00 84 1001.6
20260506090256 54 259 0.0 2.0 0.00 0.03 0.00 83 1001.5
20260506085751 54 257 0.0 2.0 0.00 0.03 0.00 84 1001.6
20260506085244 54 250 0.0 3.0 0.00 0.04 0.00 83 1001.6
20260506084738 54 268 0.0 3.0 0.00 0.04 0.00 83 1001.6
20260506084232 54 265 0.0 1.0 0.00 0.05 0.00 83 1001.5
20260506083726 54 240 0.0 0.0 0.00 0.05 0.00 83 1001.4
20260506083220 55 264 0.0 0.0 0.00 0.05 0.00 83 1001.6
20260506082715 55 244 0.0 0.0 0.00 0.05 0.00 83 1001.7
20260506082208 55 244 0.0 0.0 0.00 0.05 0.00 83 1001.6
20260506081703 55 244 0.0 0.0 0.00 0.05 0.00 83 1001.7
20260506081200 55 242 0.0 0.0 0.00 0.05 0.00 83 1001.6
20260506080650 55 242 0.0 0.0 0.00 0.06 0.00 83 1001.6
20260506080144 55 242 0.0 0.0 0.00 0.06 0.00 83 1001.6
20260506073134 55 276 0.0 0.0 0.00 0.13 0.00 83 1001.4
20260506072635 55 276 0.0 0.0 0.00 0.13 0.00 83 1001.4
20260506072131 55 276 0.0 3.0 0.00 0.13 0.00 83 1001.3
20260506071633 55 275 1.0 3.0 0.00 0.14 0.00 83 1001.3
20260506071131 55 265 0.0 2.0 0.00 0.14 0.00 84 1001.3
20260506070631 55 278 0.0 0.0 0.00 0.15 0.00 84 1001.2
20260506070132 55 278 0.0 0.0 0.00 0.15 0.00 84 1001.1
20260506062129 55 241 1.0 3.0 0.00 0.16 0.15 84 1000.9
20260506061628 55 242 1.0 3.0 0.00 0.17 0.15 84 1000.9
20260506060623 55 207 1.0 3.0 0.00 0.17 0.15 85 1000.8
20260506060124 55 225 0.0 2.0 0.00 0.18 0.15 85 1000.9
20260506051119 54 227 1.0 6.0 0.00 0.25 0.15 86 1000.5
20260506050620 55 205 1.0 6.0 0.00 0.25 0.15 86 1000.6
20260506050119 55 248 1.0 5.0 0.00 0.25 0.15 87 1000.5
20260506045115 55 203 1.0 2.0 0.00 0.26 0.15 87 1000.4
20260506044615 55 203 0.0 2.0 0.00 0.27 0.15 87 1000.4
20260506043115 55 203 0.0 1.0 0.00 0.29 0.15 87 1000.1
20260506042614 55 203 0.0 2.0 0.00 0.29 0.15 87 1000.1
20260506042114 55 203 0.0 2.0 0.00 0.29 0.15 86 1000.1
20260506041607 55 241 0.0 0.0 0.00 0.30 0.15 86 1000.0
20260506041102 55 241 0.0 0.0 0.00 0.30 0.15 86 1000.0
20260506040053 55 242 0.0 1.0 0.00 0.31 0.15 86 999.9
20260506035553 55 242 0.0 1.0 0.00 0.31 0.15 86 999.9
20260506035053 55 248 0.0 2.0 0.00 0.31 0.15 86 999.7
20260506034549 55 248 1.0 3.0 0.00 0.31 0.15 86 999.6
20260506033549 55 228 1.0 3.0 0.00 0.31 0.15 85 999.5
20260506033049 56 221 1.0 5.0 0.00 0.31 0.15 85 999.3
20260506032052 56 238 0.0 3.0 0.00 0.31 0.15 85 999.2
20260506031045 56 246 1.0 7.0 0.00 0.31 0.15 85 999.1
20260506030545 56 242 2.0 7.0 0.00 0.31 0.15 85 998.9
20260506025045 56 220 1.0 4.0 0.00 0.31 0.15 85 998.8
20260506024545 56 255 2.0 8.0 0.00 0.31 0.15 85 998.7
20260506024044 56 208 2.0 8.0 0.00 0.31 0.15 85 998.8
20260506023030 57 215 2.0 6.0 0.00 0.31 0.15 85 998.8
20260506022018 57 241 1.0 5.0 0.00 0.31 0.15 85 998.7
20260506021512 57 277 2.0 8.0 0.00 0.31 0.15 85 998.6
20260506021005 57 228 3.0 8.0 0.00 0.31 0.15 85 998.6
20260506020459 57 208 3.0 8.0 0.00 0.31 0.15 84 998.5
20260506015954 57 243 3.0 7.0 0.00 0.31 0.15 84 998.4
20260506015448 57 233 3.0 7.0 0.00 0.31 0.15 84 998.4
20260506014944 57 231 3.0 8.0 0.00 0.31 0.15 84 998.4
20260506014435 57 222 3.0 8.0 0.00 0.31 0.15 83 998.3
20260506013930 58 238 3.0 8.0 0.00 0.31 0.15 83 998.4
20260506013426 58 188 3.0 9.0 0.00 0.31 0.15 83 998.4
20260506012918 58 196 3.0 9.0 0.00 0.31 0.15 82 998.3
20260506012412 58 266 3.0 9.0 0.00 0.31 0.15 82 998.5
20260506011905 58 190 3.0 9.0 0.00 0.31 0.15 82 998.4
20260506011400 58 209 3.0 6.0 0.00 0.31 0.15 82 998.5
20260506010854 58 185 3.0 8.0 0.00 0.31 0.15 82 998.5
20260506010348 58 238 3.0 8.0 0.00 0.31 0.15 82 998.4
20260506005336 59 269 3.0 8.0 0.00 0.31 0.15 82 998.4
20260506004830 59 193 3.0 8.0 0.00 0.31 0.15 82 998.3
20260506004324 59 197 4.0 8.0 0.00 0.31 0.15 82 998.3
20260506003817 59 208 4.0 8.0 0.00 0.31 0.15 81 998.3
20260506003312 59 221 3.0 9.0 0.00 0.31 0.15 81 998.3
20260506002259 60 244 2.0 7.0 0.00 0.31 0.15 81 998.3
20260506001754 60 256 3.0 6.0 0.00 0.31 0.15 82 998.1
20260506001248 59 202 3.0 9.0 0.00 0.31 0.15 82 998.1
20260506000742 59 224 4.0 9.0 0.00 0.31 0.15 82 998.1
20260506000236 58 212 4.0 9.0 0.00 0.31 0.15 82 998.1
20260505235730 59 211 3.0 9.0 0.00 0.31 0.15 83 998.1
20260505235224 58 205 3.0 9.0 0.00 0.31 0.15 83 998.1
20260505234718 58 248 3.0 7.0 0.00 0.31 0.15 84 998.2
20260505234212 58 239 3.0 7.0 0.00 0.31 0.15 84 998.2
20260505233705 58 202 4.0 10.0 0.00 0.31 0.15 83 998.1
20260505232655 58 218 3.0 8.0 0.00 0.31 0.15 83 998.2
20260505231641 58 239 3.0 7.0 0.00 0.31 0.15 83 998.2
20260505231135 58 208 3.0 7.0 0.00 0.31 0.15 83 998.3
20260505230630 59 229 3.0 7.0 0.00 0.31 0.15 83 998.2
20260505230124 59 200 3.0 8.0 0.00 0.31 0.15 83 998.2
20260505225112 59 233 3.0 9.0 0.00 0.31 0.15 83 998.2
20260505224606 59 247 4.0 9.0 0.00 0.31 0.15 82 998.1
20260505224100 60 250 4.0 10.0 0.00 0.31 0.15 81 998.2
20260505223554 60 249 4.0 10.0 0.00 0.31 0.15 81 998.2
20260505223048 60 255 4.0 9.0 0.00 0.31 0.15 80 998.2
20260505222541 60 257 4.0 9.0 0.00 0.31 0.15 79 998.2
20260505222035 61 219 4.0 12.0 0.00 0.31 0.15 79 998.1
20260505221530 61 247 3.0 12.0 0.00 0.31 0.15 79 998.1
20260505220518 61 249 4.0 11.0 0.00 0.31 0.15 79 998.1
20260505220012 61 300 4.0 11.0 0.00 0.31 0.15 79 998.1
20260505215506 61 242 4.0 7.0 0.00 0.31 0.15 79 998.2
20260505215000 61 245 4.0 7.0 0.00 0.31 0.15 79 998.2
20260505213948 61 198 3.0 9.0 0.00 0.31 0.15 79 998.3
20260505213442 61 250 3.0 7.0 0.00 0.31 0.15 79 998.3
20260505212935 61 249 4.0 8.0 0.00 0.31 0.15 78 998.4
20260505212430 61 225 3.0 8.0 0.00 0.31 0.15 80 998.4
20260505211924 61 244 3.0 8.0 0.00 0.31 0.15 80 998.4
20260505211418 60 187 3.0 8.0 0.00 0.31 0.15 80 998.4
20260505210911 60 282 3.0 7.0 0.00 0.31 0.15 79 998.3
20260505205900 60 231 2.0 7.0 0.00 0.31 0.15 81 998.4
20260505204849 59 271 2.0 6.0 0.00 0.31 0.15 81 998.5
20260505204349 59 216 2.0 9.0 0.00 0.31 0.15 81 998.4
20260505203848 59 248 2.0 9.0 0.00 0.31 0.15 81 998.4
20260505203350 59 257 2.0 4.0 0.00 0.31 0.15 81 998.4
20260505202848 59 205 1.0 4.0 0.00 0.31 0.15 81 998.4
20260505202346 59 213 1.0 6.0 0.00 0.31 0.15 81 998.5
20260505201846 59 218 1.0 7.0 0.00 0.31 0.15 81 998.5
20260505201347 60 236 2.0 7.0 0.00 0.31 0.15 81 998.5
20260505200847 60 271 3.0 6.0 0.00 0.31 0.15 80 998.5
20260505200348 60 209 2.0 5.0 0.00 0.31 0.15 80 998.5
20260505195848 60 223 2.0 5.0 0.00 0.31 0.15 80 998.4
20260505195348 60 207 2.0 5.0 0.00 0.31 0.15 79 998.5
20260505194842 59 256 3.0 7.0 0.00 0.31 0.15 79 998.5
20260505193842 59 163 2.0 6.0 0.00 0.31 0.15 81 998.5
20260505192843 58 168 2.0 5.0 0.00 0.31 0.15 83 998.6
20260505192343 58 244 1.0 3.0 0.00 0.31 0.15 85 998.7
20260505191842 58 210 1.0 6.0 0.00 0.31 0.15 85 998.5
20260505191343 58 206 1.0 6.0 0.00 0.31 0.15 85 998.5
20260505190844 57 218 2.0 5.0 0.00 0.31 0.15 85 998.5
20260505190339 57 232 2.0 5.0 0.00 0.31 0.15 85 998.5
20260505185840 57 196 2.0 5.0 0.00 0.31 0.15 85 998.5
20260505185340 57 204 1.0 4.0 0.00 0.31 0.15 86 998.4
20260505184838 57 240 1.0 4.0 0.00 0.31 0.15 86 998.3
20260505184339 57 279 1.0 3.0 0.00 0.31 0.15 86 998.3
20260505183838 57 30 1.0 3.0 0.00 0.31 0.15 87 998.3
20260505183340 56 355 1.0 3.0 0.00 0.31 0.15 88 998.3
20260505182838 56 279 1.0 6.0 0.00 0.31 0.15 88 998.4
20260505182339 56 273 1.0 6.0 0.00 0.31 0.15 89 998.4
20260505181840 56 273 1.0 4.0 0.00 0.31 0.15 90 998.4
20260505181340 56 188 1.0 4.0 0.00 0.31 0.15 90 998.4
20260505180338 55 309 0.0 3.0 0.00 0.31 0.15 91 998.3
20260505175836 55 309 0.0 3.0 0.00 0.31 0.15 91 998.4
20260505175335 55 294 1.0 3.0 0.00 0.31 0.15 91 998.3
20260505174835 55 293 1.0 3.0 0.00 0.31 0.15 91 998.1
20260505174333 55 275 1.0 4.0 0.00 0.31 0.15 91 998.1
20260505173832 55 268 1.0 5.0 0.00 0.31 0.15 91 998.0
20260505173332 55 281 1.0 5.0 0.00 0.31 0.15 91 998.1
20260505172832 55 268 1.0 5.0 0.00 0.31 0.15 92 998.1
20260505172333 55 283 1.0 3.0 0.00 0.31 0.15 92 998.0
20260505171319 55 277 0.0 1.0 0.00 0.31 0.15 92 998.0
20260505170813 55 277 1.0 3.0 0.00 0.31 0.15 92 998.1
20260505165801 55 278 1.0 4.0 0.01 0.31 0.15 92 998.0
20260505165255 55 267 1.0 3.0 0.01 0.31 0.15 92 998.0
20260505164750 55 271 0.0 3.0 0.01 0.31 0.15 92 998.0
20260505163737 55 271 0.0 4.0 0.01 0.31 0.15 92 998.0
20260505163231 54 271 0.0 4.0 0.01 0.31 0.15 92 998.0
20260505162219 54 234 0.0 1.0 0.01 0.31 0.15 92 998.0
20260505161713 54 269 1.0 2.0 0.01 0.31 0.15 92 998.0
20260505160701 54 270 1.0 3.0 0.01 0.31 0.15 92 997.8
20260505160200 54 233 0.0 2.0 0.01 0.31 0.15 92 997.9
20260505151600 53 276 0.0 3.0 0.00 0.30 0.14 92 997.6
20260505150549 53 275 1.0 6.0 0.00 0.30 0.14 92 997.6
20260505140437 52 205 0.0 1.0 0.00 0.30 0.14 92 997.2
20260505124307 52 201 1.0 4.0 0.00 0.30 0.14 91 996.9
20260505123803 52 201 0.0 4.0 0.00 0.30 0.14 91 996.9